Location: Marcé
(47.5801°N, 0.3280°W)
Time: 06:19:46
(UTC+01:00)

Altair - Pass Details

Date: 18 December 2021
Orbit: 1501 x 1683 km, 47.2° (Epoch: 21 January)

Event Time Altitude Azimuth Distance (km) Brightness Sun altitude
Rises 20:47:46 0° 286° (WNW) 4,702 11.0 -35.3°
Reaches altitude 10° 20:52:55 10° 262° (W) 3,684 10.2 -36.2°
Maximum altitude 20:56:54 14° 236° (SW) 3,385 9.8 -36.9°
Drops below altitude 10° 21:00:51 10° 210° (SSW) 3,648 9.7 -37.5°
Sets 21:05:57 0° 186° (S) 4,619 10.0 -38.4°
